Погода в Языковой Пятиной

Россия / Республика Мордовия     53°46′44″N   44°33′28″E
темп.,
°C
ветер,
м/с
пор.,
м/с
влажн.,
%
обл.,
%
осадки,
мм/ч
давл.,
гПа
погр.,
м
26 июня, вс
вс2600:00+16ссз34890 0.0 101660
03:00+15с34910 0.0 101757
06:00+17с38850 0.0 1018222
09:00+21ссв69610 0.0 1019802
12:00+22ссв79530 0.0 10191239
15:00+21ссв67520 0.0 10201219
18:00+20ссв57660 0.0 1020660
21:00+14ссв22804 0.0 102111
27 июня, пн
пн2700:00+13ссв11770 0.0 102110
03:00+12ссз11760 0.0 102210
06:00+15зсз23730 0.0 102295
09:00+20з44610 0.0 1021510
12:00+23з56550 0.0 1020843
15:00+25зсз68610 0.0 10181140
18:00+25з487415 0.2 1016378
21:00+20сз46861 3.4 101683
28 июня, вт
вт2800:00+19ссв11890 0.1 101611
03:00+16с34930 0.1 101756
06:00+16ссв49890 0.0 1017312
09:00+18св68620 0.0 1018736
12:00+19ссв67550 0.0 10191464
15:00+19ссв67510 0.0 10201691
18:00+18ссв47621 0.0 1020797
21:00+12всв35830 0.0 102277
29 июня, ср
ср2900:00+10св22820 0.0 102311
03:00+9ссв22800 0.0 102313
06:00+11с23700 0.0 1023138
09:00+16ссв35540 0.0 10231048
12:00+18ссв45483 0.0 10231712
15:00+18с44480 0.0 10221738
18:00+18ссв34605 0.0 1021894
21:00+12с22720 0.0 102111
30 июня, чт
чт3000:00+10сз22740 0.0 102111
03:00+10зсз33766 0.0 102140
06:00+12сз387677 0.0 1020195
09:00+17сз5861100 0.0 1019565
12:00+20сз685069 0.0 10181702
15:00+21сз6951100 0.0 10162007
18:00+18ссз5126274 0.0 1016816
21:00+15ссз36681 0.0 1016186